This is the latest recevied weather packets stored in our database for station/object DO7CRZ-12. If no packets are shown the sender has not sent any weather packets the latest 10 day(s).
| Time | Temp. | Humidity | Pressure | Rain* | Wind** | Luminosity | Snow |
|---|---|---|---|---|---|---|---|
| 1778038047 | 12.78° C | 97% | 1004.5 hPa | 0 mm | - | 0 W/m² | - |
| 1778037444 | 12.78° C | 97% | 1004.5 hPa | 0 mm | - | 0 W/m² | - |
| 1778036238 | 12.78° C | 97% | 1004.4 hPa | 0 mm | - | 0 W/m² | - |
| 1778035635 | 12.78° C | 98% | 1004.4 hPa | 0 mm | - | 0 W/m² | - |
| 1778035047 | 13.33° C | 98% | 1004.4 hPa | 0 mm | - | 0 W/m² | - |
| 1778034444 | 13.33° C | 98% | 1004.4 hPa | 0 mm | - | 0 W/m² | - |
| 1778033842 | 13.33° C | 98% | 1004.4 hPa | 0 mm | - | 0 W/m² | - |
| 1778033239 | 13.33° C | 98% | 1004.4 hPa | 0 mm | - | 0 W/m² | - |
| 1778032636 | 13.33° C | 98% | 1004.5 hPa | 0 mm | - | 0 W/m² | - |
| 1778032048 | 13.89° C | 98% | 1004.5 hPa | 0 mm | - | 0 W/m² | - |
| 1778031445 | 13.89° C | 98% | 1004.7 hPa | 0 mm | - | 0 W/m² | - |
| 1778030842 | 13.89° C | 98% | 1004.7 hPa | 0 mm | - | 0 W/m² | - |
| 1778029049 | 13.89° C | 97% | 1004.6 hPa | 0 mm | - | 0 W/m² | - |
| 1778028446 | 14.44° C | 97% | 1004.7 hPa | 0 mm | - | 0 W/m² | - |
| 1778027843 | 14.44° C | 96% | 1004.9 hPa | 0 mm | - | 0 W/m² | - |
| 1778027240 | 14.44° C | 96% | 1005.3 hPa | 0 mm | - | 0 W/m² | - |
| 1778026638 | 14.44° C | 96% | 1005.7 hPa | 0 mm | - | 0 W/m² | - |
| 1778026050 | 14.44° C | 95% | 1005.7 hPa | 0 mm | - | 0 W/m² | - |
| 1778025447 | 14.44° C | 94% | 1005.7 hPa | 0 mm | - | 0 W/m² | - |
| 1778024844 | 14.44° C | 94% | 1005.6 hPa | 0 mm | - | 0 W/m² | - |
| 1778024241 | 14.44° C | 92% | 1005.7 hPa | 0 mm | - | 0 W/m² | - |
| 1778023638 | 14.44° C | 89% | 1006.1 hPa | 0 mm | - | 0 W/m² | - |
| 1778023035 | 15° C | 85% | 1006.6 hPa | 0 mm | - | 0 W/m² | - |
| 1778021845 | 15.56° C | 82% | 1006.2 hPa | 0 mm | - | 0 W/m² | - |
| 1778021242 | 15.56° C | 80% | 1005.9 hPa | 0 mm | - | 0 W/m² | - |
* Rain latest hour (hover to see other rain measurements)
** Current wind speed in m/s (hover to see current wind gust speed)